Location: Devore Heights
(34.2372°N, 117.4156°W)
Time: 07:44:40
(UTC+00:00)

ARIANE 6 FM1 Upper Stage - Pass Details

Date: 22 August 2024
Orbit: 567 x 594 km, 62.0° (Epoch: 06 September)

Event Time Altitude Azimuth Distance (km) Brightness Sun altitude
Exits shadow 11:23:58 33° 160° (SSE) 982 3.7 -22.1°
Maximum altitude 11:25:14 43° 118° (ESE) 826 3.6 -21.9°
Drops below altitude 10° 11:29:19 10° 47° (NE) 1,910 6.5 -21.2°
Sets 11:31:39 0° 40° (NE) 2,819 7.5 -20.8°
